EW6114 Weather Reports


time (UTC)temp
C
wind
direction
speed
KPH
gust
KPH
rain 1hr
cm
rain 24hr
cm
rain mn
cm
humidity
%
barometer
mb
20260504210049 -17 216 0.0 0.0 0.00 0.00 0.00 1068.3
20260504205748 -17 216 0.0 0.0 0.00 0.00 0.00 1068.2
20260504204949 -17 216 0.0 0.0 0.00 0.00 0.00 1068.2
20260504204715 -17 216 0.0 0.0 0.00 0.00 0.00 1068.1
20260504203912 -17 216 0.0 0.0 0.00 0.00 0.00 1068.0
20260504203628 -17 216 0.0 0.0 0.00 0.00 0.00 1068.0
20260504202851 -17 216 0.0 0.0 0.00 0.00 0.00 1067.9
20260504202254 -17 216 0.0 0.0 0.00 0.00 0.00 1067.8
20260504201727 -17 216 0.0 0.0 0.00 0.00 0.00 1067.9
20260504201153 -17 216 0.0 0.0 0.00 0.00 0.00 1067.8
20260504200654 -17 216 0.0 0.0 0.00 0.00 0.00 1067.7
20260504200144 -17 216 0.0 0.0 0.00 0.00 0.00 1067.7
20260504195630 -17 216 0.0 0.0 0.00 0.00 0.00 1067.7
20260504195052 -17 216 0.0 0.0 0.00 0.00 0.00 1067.6
20260504194553 -17 216 0.0 0.0 0.00 0.00 0.00 1067.5
20260504194049 -17 216 0.0 0.0 0.00 0.00 0.00 1067.5
20260504193545 -17 216 0.0 0.0 0.00 0.00 0.00 1067.4
20260504193003 -17 216 0.0 0.0 0.00 0.00 0.00 1067.4
20260504192657 -17 216 0.0 0.0 0.00 0.00 0.00 1067.4
20260504191324 -17 208 0.0 0.0 0.00 0.00 0.00 1067.3
20260504190804 -17 225 0.0 0.0 0.00 0.00 0.00 1067.3
20260504190252 -17 216 0.0 0.0 0.00 0.00 0.00 1067.3
20260504185731 -17 216 0.0 0.0 0.00 0.00 0.00 1067.2
20260504185223 -17 216 0.0 0.0 0.00 0.00 0.00 1067.2
20260504184657 -17 216 0.0 0.0 0.00 0.00 0.00 1067.2
20260504184148 -17 216 0.0 0.0 0.00 0.00 0.00 1067.2
20260504183922 -17 216 0.0 0.0 0.00 0.00 0.00 1067.1
20260504183136 -17 216 0.0 0.0 0.00 0.00 0.00 1067.1
20260504182550 -17 216 0.0 0.0 0.00 0.00 0.00 1067.0
20260504182017 -17 216 0.0 0.0 0.00 0.00 0.00 1067.0
20260504181456 -17 216 0.0 0.0 0.00 0.00 0.00 1067.0
20260504180946 -17 216 0.0 0.0 0.00 0.00 0.00 1066.8
20260504180651 -17 216 0.0 0.0 0.00 0.00 0.00 1067.0
20260504175856 -17 216 0.0 0.0 0.00 0.00 0.00 1067.0
20260504175622 -17 216 0.0 0.0 0.00 0.00 0.00 1067.0
20260504174849 -17 216 0.0 0.0 0.00 0.00 0.00 1067.1
20260504174331 -17 216 0.0 0.0 0.00 0.00 0.00 1067.1
20260504174019 -17 216 0.0 0.0 0.00 0.00 0.00 1067.0
20260504173247 -17 216 0.0 0.0 0.00 0.00 0.00 1067.0
20260504172747 -17 216 0.0 0.0 0.00 0.00 0.00 1067.0
20260504172509 -17 216 0.0 0.0 0.00 0.00 0.00 1067.1
20260504171651 -17 216 0.0 0.0 0.00 0.00 0.00 1067.1
20260504171152 -17 216 0.0 0.0 0.00 0.00 0.00 1067.2
20260504170636 -17 216 0.0 0.0 0.00 0.00 0.00 1067.2
20260504160250 -17 224 0.0 0.0 0.00 0.00 0.00 1067.1
20260504150949 -17 224 0.0 0.0 0.00 0.00 0.00 1067.0
20260504150412 -17 224 0.0 0.0 0.00 0.00 0.00 1067.0
20260504141259 -17 224 0.0 0.0 0.00 0.00 0.00 1066.6
20260504140747 -17 224 0.0 0.0 0.00 0.00 0.00 1066.6
20260504140244 -17 224 0.0 0.0 0.00 0.00 0.00 1066.6
20260504130449 -17 224 0.0 0.0 0.00 0.00 0.00 1066.5
20260504120152 -17 223 0.0 0.0 0.00 0.00 0.00 1066.2
20260504110355 -17 223 0.0 0.0 0.00 0.00 0.00 1065.6
20260504100555 -17 225 0.0 0.0 0.00 0.00 0.00 1064.7
20260504081826 -17 226 0.0 0.0 0.00 0.00 0.00 1063.1
20260504081554 -17 248 0.0 0.0 0.00 0.00 0.00 1063.0
20260504080823 -17 196 0.0 0.0 0.00 0.00 0.00 1062.9
20260504080322 -17 248 0.0 0.0 0.00 0.00 0.00 1062.9
20260504070222 -17 222 0.0 0.0 0.00 0.00 0.00 1062.3
20260504060210 -17 225 0.0 0.0 0.00 0.00 0.00 1061.8
20260504050650 -17 229 0.0 0.0 0.00 0.00 0.00 1061.1
20260504050150 -17 254 0.0 0.0 0.00 0.00 0.00 1061.0
20260504045650 -17 225 0.0 0.0 0.00 0.00 0.00 1060.9
20260504045150 -17 262 0.0 0.0 0.00 0.00 0.00 1061.0
20260504044921 -17 233 0.0 0.0 0.00 0.00 0.00 1060.9
20260504044150 -17 205 0.0 0.0 0.00 0.00 0.00 1060.9
20260504043650 -17 227 0.0 0.0 0.00 0.00 0.00 1060.8
20260504043150 -17 241 0.0 0.0 0.00 0.00 0.00 1060.8
20260504042650 -17 206 0.0 0.0 0.00 0.00 0.00 1060.8
20260504042152 -17 206 0.0 0.0 0.00 0.00 0.00 1060.7
20260504041644 -17 347 0.0 0.0 0.00 0.00 0.00 1060.7
20260504041142 -17 183 0.0 0.0 0.00 0.00 0.00 1060.8
20260504040641 -17 214 0.0 0.0 0.00 0.00 0.00 1060.8
20260504040138 -17 226 0.0 0.0 0.00 0.00 0.00 1060.8
20260504035637 -17 230 0.0 0.0 0.00 0.00 0.00 1060.7
20260504035408 -17 206 0.0 0.0 0.00 0.00 0.00 1060.7
20260504034638 -17 218 0.0 0.0 0.00 0.00 0.00 1060.7
20260504034406 -17 214 0.0 0.0 0.00 0.00 0.00 1060.6
20260504033636 -17 256 0.0 0.0 0.00 0.00 0.00 1060.6
20260504033134 -17 187 0.0 0.0 0.00 0.00 0.00 1060.6
20260504032634 -17 221 0.0 0.0 0.00 0.00 0.00 1060.6
20260504032131 -17 191 0.0 0.0 0.00 0.00 0.00 1060.6
20260504031631 -17 182 0.0 0.0 0.00 0.00 0.00 1060.7
20260504031130 -17 241 0.0 0.0 0.00 0.00 0.00 1060.7
20260504030130 -17 219 0.0 0.0 0.00 0.00 0.00 1060.7
20260504025630 -17 226 0.0 0.0 0.00 0.00 0.00 1060.8
20260504025128 -17 250 0.0 0.0 0.00 0.00 0.00 1060.8
20260504024617 -17 246 0.0 0.0 0.00 0.00 0.00 1060.9
20260504024118 -17 194 0.0 0.0 0.00 0.00 0.00 1060.9
20260504023559 -17 202 0.0 0.0 0.00 0.00 0.00 1060.8
20260504023059 -17 237 0.0 0.0 0.00 0.00 0.00 1060.9
20260504022829 -17 220 0.0 0.0 0.00 0.00 0.00 1060.8
20260504022058 -17 211 0.0 0.0 0.00 0.00 0.00 1060.9
20260504021552 -17 210 0.0 0.0 0.00 0.00 0.00 1060.9
20260504021051 -17 233 0.0 0.0 0.00 0.00 0.00 1061.0
20260504020550 -17 234 0.0 0.0 0.00 0.00 0.00 1060.9
20260504020051 -17 197 0.0 0.0 0.00 0.00 0.00 1060.9
20260504015550 -17 244 0.0 0.0 0.00 0.00 0.00 1060.9
20260504015317 -17 225 0.0 0.0 0.00 0.00 0.00 1060.9
20260504014544 -17 227 0.0 0.0 0.00 0.00 0.00 1060.8
20260504014043 -17 218 0.0 0.0 0.00 0.00 0.00 1060.7
20260504013540 -17 183 0.0 0.0 0.00 0.00 0.00 1060.7
20260504013311 -17 219 0.0 0.0 0.00 0.00 0.00 1060.7
20260504012811 -17 214 0.0 0.0 0.00 0.00 0.00 1060.7
20260504012038 -17 187 0.0 0.0 0.00 0.00 0.00 1060.7
20260504011538 -17 228 0.0 0.0 0.00 0.00 0.00 1060.6
20260504011028 -17 240 0.0 0.0 0.00 0.00 0.00 1060.6
20260504010527 -17 243 0.0 0.0 0.00 0.00 0.00 1060.6
20260504010026 -17 238 0.0 0.0 0.00 0.00 0.00 1060.6
20260504005526 -17 219 0.0 0.0 0.00 0.00 0.00 1060.5
20260504005023 -17 231 0.0 0.0 0.00 0.00 0.00 1060.4
20260504004515 -17 206 0.0 0.0 0.00 0.00 0.00 1060.4
20260504004012 -17 217 0.0 0.0 0.00 0.00 0.00 1060.4
20260504003508 -17 200 0.0 0.0 0.00 0.00 0.00 1060.5
20260504003239 -17 197 0.0 0.0 0.00 0.00 0.00 1060.3
20260504002500 -17 192 0.0 0.0 0.00 0.00 0.00 1060.2
20260504002000 -17 194 0.0 0.0 0.00 0.00 0.00 1060.2
20260504001500 -17 226 0.0 0.0 0.00 0.00 0.00 1060.2
20260504000959 -17 215 0.0 0.0 0.00 0.00 0.00 1060.1
20260504000459 -17 258 0.0 0.0 0.00 0.00 0.00 1060.1
20260503235958 -17 241 0.0 0.0 0.00 0.00 0.00 1059.9
20260503235458 -17 219 0.0 0.0 0.00 0.00 0.00 1059.8
20260503234956 -17 239 0.0 0.0 0.00 0.00 0.00 1059.7
20260503234454 -17 210 0.0 0.0 0.00 0.00 0.00 1059.6
20260503233954 -17 246 0.0 0.0 0.00 0.00 0.00 1059.6
20260503233454 -17 210 0.0 0.0 0.00 0.00 0.00 1059.7
20260503232450 -17 214 0.0 0.0 0.00 0.00 0.00 1059.6
20260503231948 -17 212 0.0 0.0 0.00 0.00 0.00 1059.7
20260503231447 -17 216 0.0 0.0 0.00 0.00 0.00 1059.5
20260503230944 -17 221 0.0 0.0 0.00 0.00 0.00 1059.4
20260503230444 -17 0.0 0.0 0.00 0.00 0.00 1059.4
20260503225850 -17 0.0 0.0 0.00 0.00 0.00 1059.3
20260503225619 -17 0.0 0.0 0.00 0.00 0.00 1059.2
20260503224751 -17 0.0 0.0 0.00 0.00 0.00 1059.1
20260503224251 -17 0.0 0.0 0.00 0.00 0.00 1059.0
20260503223743 -17 0.0 0.0 0.00 0.00 0.00 1059.0
20260503223156 -17 0.0 0.0 0.00 0.00 0.00 1059.0
20260503222654 -17 0.0 0.0 0.00 0.00 0.00 1058.8
20260503222150 -17 0.0 0.0 0.00 0.00 0.00 1058.8
20260503221647 -17 0.0 0.0 0.00 0.00 0.00 1058.7
20260503221057 -17 0.0 0.0 0.00 0.00 0.00 1058.5
20260503220544 -17 0.0 0.0 0.00 0.00 0.00 1058.4
20260503220226 -17 0.0 0.0 0.00 0.00 0.00 1058.3
20260503215451 -17 0.0 0.0 0.00 0.00 0.00 1058.3
20260503214952 -17 0.0 0.0 0.00 0.00 0.00 1058.0
20260503214358 -17 0.0 0.0 0.00 0.00 0.00 1058.0
20260503213848 -17 0.0 0.0 0.00 0.00 0.00 1057.9
20260503213524 -17 0.0 0.0 0.00 0.00 0.00 1057.8
20260503212750 -17 0.0 0.0 0.00 0.00 0.00 1057.8
20260503212249 -17 257 0.0 0.0 0.00 0.00 0.00 1057.8
20260503211745 -17 257 0.0 0.0 0.00 0.00 0.00 1057.8
20260503211154 -17 257 0.0 0.0 0.00 0.00 0.00 1057.9
20260503210636 -17 210 0.0 0.0 0.00 0.00 0.00 1057.8